Flag for Canada Weather past 2 weeks in Kitchener, Ontario, Canada

Now
45 °F

Passing clouds.


Feels Like: 41 °F
Forecast: 35 / 55 °F
Wind: 6 mph from Southwest

Location: Waterloo Well


UV Index: 5 (Moderate)

Visibility: 9 mi


Pressure: 30.30 "Hg

Humidity: 61%

Dew point: 32 °F

Location of KitchenerLocation

Historic Weather in Kitchener

°F

Kitchener temperature yesterday

Maximum temperature yesterday: 50 °F (at 4:00 PM)
Minimum temperature yesterday: 25 °F (at 12:00 AM)
Average temperature yesterday: 37 °F

Past Weeks' High & Low Weather Summary

 TemperatureHumidityPressure
High70 °F (Apr 13, 6:00 PM)100% (Apr 4, 10:02 AM)30.54 "Hg (Apr 4, 10:02 AM)
Low18 °F (Apr 16, 4:00 AM)25% (Apr 11, 2:00 PM)29.34 "Hg (Apr 8, 4:01 AM)
Average40 °F73%29.93 "Hg
* Reported Apr 3 9:00 AM — Apr 18 9:00 AM, Kitchener, Weather by CustomWeather, © 2014

Note: Actual official high and low records may vary slightly from our data, if they occured in-between our weather recording intervals... More about our weather records

Advertising

Historic Weather Conditions — Data for Previous 24 hours

 ConditionsComfort  
Time TempWeatherWind HumidityBarometerVisibility
9:00 AM
Apr 18
45 °FPassing clouds.6 mph61%30.30 "Hg9 mi
8:00 AM39 °FSunny.2 mph81%30.29 "Hg9 mi
7:00 AM41 °FPassing clouds.2 mph70%30.29 "Hg9 mi
6:00 AM41 °FOvercast.2 mph66%30.25 "Hg9 mi
5:00 AM41 °FPassing clouds.7 mph66%30.26 "Hg9 mi
4:00 AM41 °FPartly cloudy.6 mph66%30.27 "Hg9 mi
3:00 AM37 °FPassing clouds.6 mph75%30.28 "Hg9 mi
2:00 AM37 °FClear.8 mph75%30.30 "Hg9 mi
1:00 AM37 °FPassing clouds.8 mph70%30.33 "Hg9 mi
12:00 AM37 °FOvercast.5 mph70%30.34 "Hg9 mi
11:00 PM
Apr 17
36 °FOvercast.5 mph75%30.35 "Hg9 mi
10:00 PM36 °FPassing clouds.6 mph70%30.37 "Hg9 mi
9:00 PM37 °FPassing clouds.8 mph70%30.37 "Hg9 mi
8:00 PM41 °FSunny.9 mph57%30.37 "Hg9 mi
7:00 PM45 °FSunny.13 mph53%30.37 "Hg9 mi
6:00 PM48 °FSunny.15 mph50%30.37 "Hg9 mi
5:00 PM50 °FSunny.16 mph43%30.39 "Hg9 mi
4:00 PM50 °FSunny.15 mph43%30.39 "Hg9 mi
3:00 PM48 °FSunny.17 mph46%30.42 "Hg9 mi
2:00 PM48 °FSunny.13 mph43%30.43 "Hg9 mi
1:00 PM46 °FSunny.14 mph43%30.45 "Hg9 mi
12:00 PM43 °FSunny.17 mph49%30.47 "Hg9 mi
11:00 AM41 °FSunny.15 mph49%30.49 "Hg9 mi
10:00 AM37 °FSunny.14 mph60%30.49 "Hg9 mi
Weather by CustomWeather, © 2014

See weather overview